Volver al catálogo

STARLINK-33678

ActivoComunicacionesVLEO
NORAD 63509·PAYLOAD·🇺🇸 United States

Lanzado Apr 7, 2025 desde Vandenberg Space Force Base

Loading…

Próximos Pases (próximas 24 horas)

TLE

ActualizadoSource: CelesTrak SupGP

Época: Sep 15, 2026, 03:06 UTC

1 63509C 25071S   26258.12965278  .00066246  00000+0  21295-2 0  2583
2 63509  53.1581 338.4780 0001163  95.4929 307.6246 15.31680673    19

Sigue STARLINK-33678 en tiempo real con AllMySat

Download on the App Store